Location: Casteau
(50.5142°N, 4.0161°E)
Time: 06:10:08
(UTC+00:00)

Vanguard 1 Rocket - Pass Details

Date: 28 July 2021
Orbit: 650 x 4226 km, 34.3° (Epoch: 21 September)

Event Time Altitude Azimuth Distance (km) Brightness Sun altitude
Rises 14:08:29 0° 257° (WSW) 5,618 12.0 48.2°
Reaches altitude 10° 14:13:49 10° 244° (WSW) 3,934 11.6 47.5°
Maximum altitude 14:20:19 21° 200° (SSW) 2,377 10.5 46.6°
Drops below altitude 10° 14:24:49 10° 152° (SSE) 2,594 9.9 46.0°
Sets 14:27:28 0° 135° (SE) 3,277 10.2 45.7°
